Hourly Data Report for June 15, 2017

FISHER BRANCH (AUT)
MANITOBA

51°05'00.100" N
97°33'16.200" W
253.00 m
50309J6
71442
WSZ

Download Data

Hourly Data (June 2017)
Hourly Data Report for June 15, 2017
TIME
LST
Temp Definition
°C
Dew Point Definition
°C
Rel Hum Definition
%
Precip. Amount Definition
mm

Wind Dir Definition
10's deg

Wind Spd Definition
km/h
Visibility Definition
km
Stn Press Definition
kPa
Hmdx Definition


Wind Chill Definition


Weather Definition


00:00 14.0 12.9 93 0.6 17 18   96.38     LegendNANA
01:00 14.5 12.9 90 0.0 19 18   96.37     LegendNANA
02:00 14.7 13.0 90 0.0 19 19   96.37     LegendNANA
03:00 14.5 13.3 93 0.2 19 14   96.40     LegendNANA
04:00 14.5 13.3 92 0.7 20 11   96.41     LegendNANA
05:00 14.7 13.7 94 0.0 22 8   96.47     LegendNANA
06:00 14.9 13.9 94 0.3 25 15   96.51     LegendNANA
07:00 14.0 12.8 93 0.2 25 22   96.59     LegendNANA
08:00 14.3 12.2 87 0.0 26 22   96.66     LegendNANA
09:00 13.9 11.9 88 0.0 26 22   96.73     LegendNANA
10:00 14.2 11.9 86 0.0 27 18   96.80     LegendNANA
11:00 13.9 12.1 89 0.7 27 22   96.87     LegendNANA
12:00 14.6 12.2 86 0.2 27 22   96.91     LegendNANA
13:00 14.4 11.9 85 0.0 27 17   96.98     LegendNANA
14:00 15.2 11.2 77 0.0 26 24   97.04     LegendNANA
15:00 14.6 11.3 80 0.0 27 19   97.09     LegendNANA
16:00 15.5 11.1 75 0.0 27 15   97.11     LegendNANA
17:00 15.4 10.3 72 0.0 26 19   97.11     LegendNANA
18:00 15.2 10.4 73 0.0 27 17   97.12     LegendNANA
19:00 14.5 10.6 78 0.0 27 11   97.14     LegendNANA
20:00 13.7 10.5 81 0.0 27 11   97.14     LegendNANA
21:00 12.9 10.6 86 0.0 28 11   97.14     LegendNANA
22:00 12.9 10.7 86 0.0 26 7   97.15     LegendNANA
23:00 12.2 10.9 92 0.0 31 12   97.16     LegendNANA

Notes on Data Quality.

Legend

  • E = Estimated
  • M = Missing
  • NA = Not Available*
  • [empty] = Indicates an unobserved value
Date modified: